Wind_Speed
23 27 29 31 34 33 34 32 32 31 28 25 22 22 24 26 25 26 28 26 26 25 24 23 22 21 19 18 18 18 17 17
17 26 30 32 34 36 36 35 35 33 29 27 25 24 27 25 23 27 29 28 26 25 24 24 22 21 21 21 19 20 18 19
16 22 29 34 36 39 38 36 35 36 31 30 27 26 27 28 27 26 29 29 28 26 24 25 24 22 22 23 23 21 14 20
20 19 27 32 35 39 40 39 38 37 34 31 27 26 25 26 29 28 31 31 31 29 25 26 25 24 24 25 24 22 18 21
22 21 23 34 36 37 39 38 38 38 37 34 34 33 30 31 32 32 32 32 31 30 28 26 26 25 25 26 24 22 18 24
24 23 25 34 35 35 36 38 38 38 40 36 36 32 31 31 31 31 32 33 33 32 29 28 27 27 26 26 25 23 21 20
22 22 26 30 34 35 36 38 38 38 40 40 38 34 31 31 32 32 33 33 34 33 31 30 28 28 27 27 26 24 23 22
19 21 20 26 32 35 35 37 38 40 41 41 39 35 33 32 34 34 33 32 34 34 34 31 30 29 27 25 25 24 26 25
16 19 20 24 32 33 34 37 37 39 40 40 40 38 35 32 35 33 35 35 35 34 34 32 30 29 28 26 24 25 24 26
14 15 14 25 29 33 36 37 40 42 42 40 40 40 38 36 34 34 34 34 34 34 34 34 32 30 29 26 25 24 24 26
18 15 14 17 29 33 35 38 40 41 41 40 41 42 41 38 36 35 33 34 34 34 34 35 33 32 30 28 25 25 26 25
17 16 14 16 21 30 32 36 36 36 38 37 35 36 38 36 36 35 35 33 35 35 37 36 36 33 31 30 27 25 27 25
16 16 16 17 20 28 29 32 35 36 35 34 32 29 32 33 33 33 32 32 34 35 34 34 35 34 32 31 29 25 26 27
19 19 17 17 19 20 23 26 29 29 29 29 28 28 30 32 34 32 32 32 32 33 33 32 33 33 32 30 28 27 26 26
21 21 20 18 24 23 9 20 24 26 28 29 30 32 33 32 30 31 32 32 31 30 30 29 29 29 29 27 26 25 25 25
24 22 20 18 25 27 26 19 15 24 26 28 31 32 31 30 30 30 30 30 30 29 27 26 26 27 27 27 25 26 27 25
24 24 25 23 25 26 25 24 19 8 21 23 25 28 28 30 31 31 32 29 28 25 31 26 26 28 29 30 28 28 26 26
21 22 21 30 30 32 30 27 26 26 20 11 22 24 26 28 31 32 34 35 30 29 31 30 28 34 31 32 31 23 24 28
22 20 29 35 35 38 34 33 32 29 28 25 13 18 25 28 29 31 31 31 33 28 25 28 32 26 30 29 27 24 21 24
Wind_Direction
221 217 207 204 202 193 191 189 188 182 181 184 181 182 184 180 179 180 179 179 178 176 175 172 170 171 169 166 159 157 154 149
225 215 207 203 201 196 193 189 188 182 176 180 176 185 187 190 184 182 181 183 182 178 177 176 177 177 174 169 158 153 148 151
232 214 206 200 199 199 195 192 191 188 182 183 187 189 188 190 188 186 187 186 185 183 181 180 182 181 177 170 165 155 159 168
238 215 204 198 202 198 197 192 189 192 188 185 193 189 188 187 190 187 191 190 187 187 186 185 185 187 182 177 177 176 168 184
242 213 203 204 203 200 199 193 191 193 191 189 192 188 188 190 189 194 193 193 190 190 191 189 188 190 189 189 189 191 184 183
234 228 207 205 205 199 197 195 196 194 194 192 190 194 194 187 187 192 193 195 196 194 193 193 193 193 196 196 195 198 198 195
246 233 214 203 202 202 195 197 198 195 195 195 192 195 193 187 185 189 193 195 198 198 196 196 197 199 199 199 201 203 204 208
255 240 211 211 201 196 196 196 195 197 197 196 194 194 195 191 187 185 190 194 197 198 196 197 200 202 203 204 206 211 212 212
294 245 218 214 208 194 196 194 198 195 198 198 193 194 196 196 192 191 192 194 196 200 198 200 202 203 205 207 211 213 215 216
314 296 278 211 211 199 201 195 200 200 199 198 195 194 197 197 197 197 197 197 195 198 200 201 203 206 207 208 212 215 214 216
323 302 270 257 217 212 198 204 207 201 198 199 197 196 198 198 198 199 200 200 199 199 201 203 204 205 208 210 215 217 214 217
334 332 283 255 243 217 201 201 210 204 201 199 198 200 198 200 199 201 201 200 199 199 203 205 205 205 207 210 214 214 215 216
347 348 353 323 230 213 211 201 207 206 203 201 201 199 199 200 202 204 201 200 203 204 204 205 207 209 209 210 212 214 215 216
359 0 1 357 349 218 207 202 204 206 200 193 194 199 198 200 199 201 202 200 203 207 210 210 211 212 212 213 216 217 218 219
7 5 1 359 8 13 345 202 199 200 199 189 190 197 199 199 200 200 200 200 200 206 209 212 214 214 215 210 215 218 218 220
10 6 1 1 16 15 12 13 208 192 192 190 196 199 197 194 196 200 201 198 203 204 210 211 215 215 215 213 212 216 216 217
3 7 5 5 15 17 19 17 18 208 184 188 197 196 192 191 191 185 187 194 197 200 213 217 213 215 219 219 221 218 221 216
4 7 9 5 15 22 24 24 34 49 55 190 188 186 188 188 187 188 193 198 200 208 218 220 223 226 229 225 230 222 222 216
359 10 6 15 20 25 26 31 35 41 41 38 57 190 185 187 186 189 197 199 192 199 196 202 211 215 225 229 229 219 223 225
Height
687 695 703 711 720 726 733 741 746 752 759 767 772 776 781 784 788 793 800 805 810 814 818 822 826 830 834 838 842 847 851 856
679 686 695 703 712 720 725 733 739 747 752 759 765 770 776 783 787 793 798 803 807 811 815 820 824 828 832 837 841 846 850 854
673 680 688 696 703 711 718 725 735 740 745 752 761 766 772 777 785 791 795 800 804 808 812 817 821 826 830 834 838 843 849 852
667 672 681 691 696 702 710 717 727 736 740 749 757 762 769 773 779 785 790 795 800 804 809 814 819 823 828 831 835 838 842 848
661 661 671 683 689 698 705 711 718 727 735 739 746 750 756 761 768 777 785 791 796 800 805 810 815 819 824 828 832 835 837 842
651 652 659 676 686 691 699 707 712 719 726 731 738 745 750 756 763 771 779 786 791 795 800 805 810 814 819 824 828 831 834 837
645 647 654 664 678 686 691 698 704 712 719 725 730 737 742 749 755 763 771 778 785 789 795 800 805 810 814 819 823 827 829 832
642 642 646 655 664 677 684 690 696 703 711 717 722 730 736 741 746 752 762 769 776 782 788 794 799 805 810 814 818 822 825 827
646 638 638 647 655 668 677 682 689 695 703 709 714 722 730 735 741 746 753 759 767 776 781 787 794 800 805 809 812 816 819 823
659 651 642 641 649 658 668 674 680 686 693 701 705 712 720 726 734 740 746 753 760 768 774 780 787 793 798 802 805 809 813 816
672 659 649 643 642 649 660 669 672 678 686 692 696 701 710 718 727 733 740 747 754 761 768 774 780 785 790 795 799 802 806 809
680 665 649 642 639 643 649 660 667 673 679 684 690 698 704 713 719 726 733 740 747 753 761 767 773 777 782 788 792 795 798 802
687 674 660 641 636 634 642 651 659 664 673 681 689 696 703 708 714 722 728 735 742 748 755 761 766 771 775 780 784 788 792 796
691 679 667 656 640 630 638 645 653 661 668 675 684 690 696 702 707 716 724 729 737 744 750 754 759 764 768 773 778 782 785 789
700 688 678 665 653 645 640 643 650 656 663 669 676 683 689 695 704 710 717 723 730 738 743 748 753 758 763 766 771 776 778 782
708 700 690 677 664 656 651 647 648 653 659 665 671 677 685 692 699 706 713 720 725 730 737 741 746 750 754 759 763 768 771 774
718 710 699 687 676 670 664 658 653 651 656 662 668 674 680 686 694 700 707 714 719 724 728 733 737 743 748 751 756 761 767 767
728 721 713 702 687 683 674 670 664 659 660 662 665 670 676 682 688 694 700 704 711 717 722 724 731 738 738 746 750 755 758 760
740 728 725 712 704 694 690 682 676 672 669 667 666 669 673 678 683 688 694 699 698 709 715 722 727 728 734 740 743 748 753 755